Regional Weather Roundup
Issued by NWS

Home | Current Version | Previous Version | Text Only | Print | Product List | Glossary On
Versions: 1 2 3 4 5 6 7 8 9 10 11 12 13 14 15 16 17 18 19 20 21 22 23 24 25 26 27 28 29 30 31 32 33 34 35 36 37 38 39 40 41 42 43 44 45 46 47 48 49 50
000
ASHW40 PHFO 231443
RWRHI

WEATHER ROUNDUP FOR HAWAII
NATIONAL WEATHER SERVICE HONOLULU HI
400 AM HST TUE JAN 23 2018

THIS IS AN AUTOMATED REPORT THAT HAS NOT BEEN QUALITY CONTROLLED.

NOTE..."FAIR" INDICATES FEW OR NO CLOUDS BELOW 12,000 FEET WITH NO
SIGNIFICANT WEATHER AND/OR OBSTRUCTIONS TO VISIBILITY.

* - THESE SITES REPORT LIMITED FIELDS
# - BUOY DATA PROVIDED BY PACIFIC ISLANDS OCEAN OBSERVING SYSTEM.

HIZ001>004-231500-
KAUAI-NIIHAU-

CITY           SKY/WX    TMP DP  RH WIND       PRES   REMARKS
LIHUE APT      CLOUDY    73  67  81 NE15      30.00F
PORT ALLEN*      N/A     72 N/A N/A E13         N/A
POIPU*           N/A     73 N/A N/A NE8G18      N/A
PRINCEVILLE*     N/A     68 N/A N/A SE3         N/A
KOKOLE POINT*  NOT AVBL
MOLOAA DAIRY*    N/A     72  66  83 E3G12       N/A
WAIMEA HTS*      N/A     68  57  68 N2          N/A
PUU OPAE*        N/A     61  52  72 SE3         N/A
PUU LUA*       NOT AVBL
MAKAHA RIDGE*    N/A     64  55  72 CALM        N/A
$$

HIZ005>011-231500-
OAHU-

CITY           SKY/WX    TMP DP  RH WIND       PRES   REMARKS
HONOLULU       PTCLDY    75  63  66 E8        29.97F
KALAELOA       CLEAR     70  65  84 NE6       29.99S
KANEOHE MCB    PTCLDY    74  69  85 NE7       29.97F
WHEELER FIELD  FAIR      68  66  94 NW6       30.01F
BELLOWS*         N/A    N/A N/A N/A NE16        N/A
KAHUKU*          N/A    N/A N/A N/A E9G16       N/A
WHEELER*         N/A    N/A N/A N/A N2G8        N/A
WAIANAE HARBOR   N/A    N/A N/A N/A N2          N/A
DILLINGHAM*    NOT AVBL
KAHUKU TRN*      N/A     79  75  89 W9G20       N/A
KAWAILOA*        N/A     66  63  88 E13G23      N/A
KII*             N/A     72  66  83 E16G26      N/A
MAKUA RANGE*     N/A     70  59  68 W12G18      N/A
OAHU FOREST NW   N/A     66  61  82 E22G36      N/A
SCHOFIELD BRK*   N/A    N/A N/A N/A CALM        N/A
SCHOFIELD S*   NOT AVBL
WAIANAE VLY*     N/A     72  63  73 N12G26      N/A
KUAOKALA*        N/A     68  63  83 NE14G26     N/A
HONOULIUULI*   NOT AVBL
MOKUOLOE IS*   NOT AVBL
PALEHUA*         N/A    N/A N/A N/A NE14G25     N/A
WAIAWA PHB*    NOT AVBL
$$

HIZ012>013-231500-
MOLOKAI-

CITY           SKY/WX    TMP DP  RH WIND       PRES   REMARKS
MOLOKAI AIRPT    N/A    N/A N/A N/A MISG        N/A
KALAUPAPA      NOT AVBL
MAKAPULAPAI*     N/A     73  66  78 E18G28      N/A
MOLOKAI 1*     NOT AVBL
PUU ALII*        N/A     53  53 100 NE3G12      N/A
$$

HIZ016-231500-
KAHOOLAWE-

CITY           SKY/WX    TMP DP  RH WIND       PRES   REMARKS
KAHOOLAWE*     NOT AVBL
HAKIOAWA*        N/A     68  65  91 MISG      30.36F
HONOKANAIA*    NOT AVBL
KANELOA*         N/A     70  66  88 NE18G35     N/A
KEALIALALO*    NOT AVBL
LUA MAKIKA*    NOT AVBL
$$

HIZ014>015-231500-
LANAI-

CITY           SKY/WX    TMP DP  RH WIND       PRES   REMARKS
LANAI CITY     FAIR      67  64  90 NE17      30.00F
LANAI 1*       NOT AVBL
$$

HIZ017>028-231500-
MAUI-

CITY           SKY/WX    TMP DP  RH WIND       PRES   REMARKS
KAHULUI        CLOUDY    72  70  93 NE17      29.96R FOG
KAPALUA-W MAUI NOT AVBL
HANA AIRPORT   LGT RAIN  72  32  23 E6G17     30.02R
HANA*            N/A     73 N/A N/A E10         N/A
HALEAKALA SUMM   N/A     37  37 100 E14         N/A  WCI  29
MAALAEA BAY*     N/A     72 N/A N/A N16G26      N/A
HALEAKALA*     NOT AVBL
KAUPO GAP*     NOT AVBL
KULA 1*          N/A     51  33  50 E2G9        N/A
$$

HIZ023>026-231500-
BIG ISLAND OF HAWAII COAST AND LOWER SLOPES-

CITY           SKY/WX    TMP DP  RH WIND       PRES   REMARKS
KAILUA KONA    PTCLDY    72  61  68 CALM      29.89F
HILO           LGT RAIN  70  64  83 W8        29.98F
HONOKAA*         N/A     66 N/A N/A VRB1        N/A
KAWAIHAE MWT*    N/A     73 N/A N/A E6          N/A
KAWAIHAE*        N/A     72 N/A N/A NE3       29.89S
SOUTH POINT*     N/A     68 N/A N/A N18G29      N/A
UPOLU AIRPORT* NOT AVBL
KAMUELA*       CLOUDY    63  61  94 NE20      30.01S
HAKALAU*         N/A     50  43  77 SW5G15      N/A
KALOKO-HONOKO*   N/A     70  63  78 NE6         N/A
PALI 2*          N/A     63  55  77 S16G31      N/A
KEALAKOMO*       N/A     72  64  78 VRB18G29    N/A
KAUPULEHU*       N/A     68  61  77 E3G18       N/A
KAPAPALA*        N/A     66  56  70 N6G18       N/A
LOWER KAHUKU*    N/A     59  54  82 N5G15       N/A
PUHE CS*         N/A     72  63  73 E3          N/A
PUHO CS*         N/A     70  57  63 E2          N/A
PTA KEAMUKU*     N/A     57  50  77 S6G14       N/A
WAIKOLOA*        N/A     70  57  64 SE5G13      N/A
$$

HIZ027>028-231500-
BIG ISLAND OF HAWAII INTERIOR AND SUMMMITS-

CITY           SKY/WX    TMP DP  RH WIND       PRES   REMARKS
BRADSHAW FIELD CLOUDY    53  42  68 S14G21    30.23S
MK VISITOR CEN   N/A     41  34  75 NE15        N/A
MAUNA KEA*       N/A     27  25  93 NE13        N/A  WCI  16
MAUNA LOA*       N/A    N/A N/A N/A MISG        N/A
MAUNA LOA 1*   NOT AVBL
PTA KIPUKA*      N/A     66  48  52 W21G35      N/A
PTA RANGE 17*    N/A     55  43  62 NW23G38     N/A
PTA WEST*        N/A     63  43  48 E18G44      N/A
NENE CABIN*      N/A     50  43  76 NE13G28     N/A
AHUMOA*          N/A     52  42  70 SE3G10      N/A
PTA PORTABLE*  NOT AVBL
PUU MALI*        N/A     55  55 100 SE23G35     N/A
$$

HIC003-231500-
NORTHWEST ISLANDS-

CITY           SKY/WX    TMP DP  RH WIND       PRES   REMARKS
MIDWAY ISLAND  PTCLDY    68  63  83 SW17      29.71F
MIDWAY NOS*      N/A     70 N/A N/A MISG      29.69F
FRENCH FRIGATE NOT AVBL
$$

PHZ110>124-180-231500-
BUOY REPORTS

STATION/POSITION TIME  TEMP    WIND        PRES    WAVE   SWELL
                       AIR SEA DIR/SP/G            HT/PER HT/DIR
                 (UTC) (F)     (DEG/KT/KT) (MB)    (FT/S) (FT/D)
BUOY 51001       1430   75 76  100/ 16/ 19 1012.4F
BUOY 51101       1350   73 74  100/ 16/ 17 1016.7F   9/16   8/280
BUOY 51100       NOT AVBL
BUOY 51002       1430   76 78   70/ 17/ 21 1012.0R
BUOY 51003       1350   76 77   80/ 14/ 17 1012.7F   9/16   8/310
BUOY 51004       1430   76 76   80/ 14/ 19 1012.9R
WAIMEA BAY#      1402      74                N/A     6/17   5/320
MOKAPU POINT#    1404      76                N/A     7/11   3/ 70
LANAI#           NOT AVBL
BARBERS PT 2#    NOT AVBL
PAUWELA#         1430      75                N/A    10/15   7/320
HILO#            1427      75                N/A     9/10   3/ 30
KANEOHE BAY#     NOT AVBL
KANEOHE BAY 2#   NOT AVBL
HANALEI#         1422      75                N/A     8/15   5/290
KAHULUI HARBOR   1412   73 74   50/ 15/ 21 1014.5
HONOLULU HARBOR  1412   74 76   80/  2/  7 1014.3
PEARL HARBOR#    1400      76                N/A     3/13   2/160
KILO NALU        NOT AVBL
HILO HARBOR      1412   68 74  220/  4/  6 1014.4
MOKUOLOE         1336   74 75   80/  8/ 11 1015.6F
NAWILIWILI       1412   72 77   50/ 10/ 15 1015.8
WHOTS BUOY       NOT AVBL
BUOY 51028       NOT AVBL
$$

......................KEY........................................
  SKY/WX - SKY CONDITIONS/PRESENT WEATHER
  TMP    - TEMPERATURE IN FAHRENHEIT
  DWPT   - DEWPOINT IN FAHRENHEIT
  RH     - RELATIVE HUMIDITY IN PERCENT
  WIND   - DIRECTION AND SPEED /MPH FOR ISLANDS...KTS FOR BUOYS/
  PRES   - MEAN SEA LEVEL PRESSURE IN INCHES OF HG
  VSB    - VISIBILITY IN MILES
  HX     - HEAT INDEX
  WCI    - WIND CHILL INDEX
  VRB    - VARIABLE WIND DIRECTION
  N/A    - NOT AVAILABLE



USA.gov is the U.S. government's official web portal to all federal, state and local government web resources and services.